Location: McCloud Nature Park
(39.8272°N, 86.6824°W)
Time: 15:57:11
(UTC-05:00)

Amateur Radio Satellites - All Passes

Search period start: 19 April 2014 15:27
Search period end: 20 April 2014 15:27
Location: McCloud Nature Park, 39.8272°N, 86.6824°W

Satellite Date Start Highest point End Downlink Frequencies (MHz)
Time Altitude Azimuth
Uribyol 2 19 Apr 15:39:05 15:41:01 12° 270° (W) 15:42:57 436.500 FM
SO-50 19 Apr 15:49:27 15:53:56 81° 303° (WNW) 15:58:28 436.795 FM
AO-7 19 Apr 15:50:39 15:58:43 60° 66° (ENE) 16:06:48 29.400 - 29.500 MHz
OPAL 19 Apr 16:04:39 16:09:48 60° 289° (WNW) 16:14:55 ?
JAS-1B 19 Apr 16:08:31 16:16:48 72° 257° (WSW) 16:23:42 435.800 - 435.900 CW/SSB
Gurwin Techsat 1B 19 Apr 16:09:28 16:13:31 22° 266° (W) 16:17:36 435.225 FM
RS-15 19 Apr 16:20:20 16:31:20 87° 240° (WSW) 16:42:38 29.354 - 29.394 USB, Beacon 29.352 USB
ISS 19 Apr 16:23:34 16:26:37 31° 331° (NNW) 16:29:40 145.800 FM
UOSAT-12 19 Apr 16:34:06 16:36:49 16° 109° (ESE) 16:39:33 437.025 FM, 437.400 FM
Uosat F 19 Apr 16:51:58 16:56:19 30° 264° (W) 17:00:42 435.120 FM
TMSAT-1 19 Apr 17:01:27 17:02:07 10° 272° (W) 17:02:48 436.925 FM
SO-50 19 Apr 17:33:27 17:35:15 12° 322° (NW) 17:37:04 436.795 FM
JAS-2 19 Apr 17:43:05 17:46:32 17° 63° (ENE) 17:49:50 435.800 - 435.900 CW/SSB, 435.910 FM
AO-7 19 Apr 17:44:58 17:51:53 29° 264° (W) 17:58:52 29.400 - 29.500 MHz
Hamsat 19 Apr 17:57:22 18:01:26 53° 74° (ENE) 18:05:35 145.90 MHz
ISS 19 Apr 18:02:43 18:04:10 12° 351° (N) 18:05:38 145.800 FM
JAS-1B 19 Apr 18:06:15 18:08:01 11° 270° (W) 18:09:44 435.800 - 435.900 CW/SSB
UOSAT-12 19 Apr 18:12:00 18:16:28 55° 305° (NW) 18:21:03 437.025 FM, 437.400 FM
Saudisat 1A 19 Apr 18:22:32 18:24:05 12° 38° (NE) 18:25:37 436.775 MHz
RS-15 19 Apr 18:34:57 18:42:05 20° 260° (W) 18:49:22 29.354 - 29.394 USB, Beacon 29.352 USB
STRAND 1 19 Apr 18:43:20 18:47:36 26° 95° (E) 18:51:50 ?
SO-67 19 Apr 19:16:40 19:20:09 82° 77° (ENE) 19:23:39 435.3500 MHz FM
JAS-2 19 Apr 19:25:21 19:31:14 64° 258° (WSW) 19:36:35 435.800 - 435.900 CW/SSB, 435.910 FM
Hamsat 19 Apr 19:36:09 19:37:46 12° 270° (W) 19:39:24 145.90 MHz
ISS 19 Apr 19:40:23 19:42:04 13° 12° (NNE) 19:43:46 145.800 FM
Saudisat 1A 19 Apr 20:00:01 20:04:26 78° 57° (ENE) 20:08:48 436.775 MHz
HO-68 19 Apr 20:06:36 20:12:54 35° 63° (ENE) 20:19:13 435.675 MHz FM
STRAND 1 19 Apr 20:22:13 20:26:49 35° 291° (WNW) 20:31:23 ?
Oscar 11 19 Apr 21:09:44 21:13:33 32° 70° (ENE) 21:17:24 145.825 FM, Beacon 2401.500 USB
MaSat-1 19 Apr 21:13:34 21:16:23 37° 113° (ESE) 21:18:53 437.345 MHz
ISS 19 Apr 21:16:21 21:19:33 39° 31° (NNE) 21:22:43 145.800 FM
HO-68 19 Apr 21:53:41 22:00:24 44° 261° (W) 22:07:11 435.675 MHz FM
FUNcube-1 19 Apr 22:36:25 22:40:39 87° 258° (WSW) 22:44:50 145.950 - 145.970 MHz USB
SO-50 19 Apr 22:43:19 22:45:02 12° 38° (NE) 22:46:45 436.795 FM
Oscar 11 19 Apr 22:46:32 22:49:47 21° 266° (W) 22:53:04 145.825 FM, Beacon 2401.500 USB
ISS 19 Apr 22:53:24 22:56:09 23° 227° (SW) 22:58:52 145.800 FM
Sapphire 19 Apr 23:23:36 23:26:56 17° 104° (ESE) 23:30:16 437.095 MHz 1200 baud AX-25 AFSK
PCSat 20 Apr 00:06:19 00:11:24 44° 112° (ESE) 00:16:32 145.825 MHz
SO-50 20 Apr 00:21:45 00:26:25 73° 57° (ENE) 00:31:07 436.795 FM
Oscar 10/S400 20 Apr 00:48:32 00:58:33 14° 130° (SE) 01:11:57 145.825 - 145.975 CW/USB, Beacon 145.810 USB
UOSAT-12 20 Apr 01:03:23 01:06:13 16° 41° (NE) 01:09:02 437.025 FM, 437.400 FM
Sapphire 20 Apr 01:04:25 01:09:47 64° 301° (WNW) 01:15:11 437.095 MHz 1200 baud AX-25 AFSK
KITSAT 1 20 Apr 01:24:52 01:30:33 21° 103° (ESE) 01:36:14 435.175 FM
Oscar 19 20 Apr 01:25:57 01:29:40 20° 93° (E) 01:33:23 437.125 CW, 437.150 USB
Oscar 16 20 Apr 01:33:53 01:38:09 25° 95° (E) 01:42:24 437.025 USB, Beacon 2401.1428
OPAL 20 Apr 01:41:13 01:45:24 27° 64° (ENE) 01:49:37 ?
PCSat 20 Apr 01:50:25 01:54:59 27° 310° (NW) 01:59:35 145.825 MHz
SO-50 20 Apr 02:04:33 02:06:24 12° 252° (WSW) 02:08:15 436.795 FM
Uribyol 2 20 Apr 02:09:52 02:14:18 28° 96° (E) 02:18:43 436.500 FM
UOSAT-12 20 Apr 02:42:14 02:46:58 81° 240° (WSW) 02:51:39 437.025 FM, 437.400 FM
Gurwin Techsat 1B 20 Apr 02:46:14 02:49:55 19° 92° (E) 02:53:35 435.225 FM
AO-27 20 Apr 02:49:51 02:55:01 67° 102° (ESE) 03:00:09 436.795 MHz FM
Sapphire 20 Apr 02:52:26 02:54:18 12° 321° (NW) 02:56:11 437.095 MHz 1200 baud AX-25 AFSK
ITAMSAT 1 20 Apr 03:00:24 03:05:36 82° 103° (ESE) 03:10:47 435.822 SSB
AO-Echo 20 Apr 03:02:15 03:07:01 70° 102° (ESE) 03:11:41 ?
Oscar 19 20 Apr 03:04:15 03:09:15 48° 289° (WNW) 03:14:13 437.125 CW, 437.150 USB
Oscar 16 20 Apr 03:12:48 03:17:35 38° 291° (WNW) 03:22:20 437.025 USB, Beacon 2401.1428
KITSAT 1 20 Apr 03:16:54 03:25:02 79° 301° (WNW) 03:33:12 435.175 FM
OPAL 20 Apr 03:19:32 03:24:06 35° 261° (W) 03:28:47 ?
TMSAT-1 20 Apr 03:33:10 03:38:04 37° 97° (E) 03:42:56 436.925 FM
Uribyol 2 20 Apr 03:49:09 03:53:46 34° 292° (WNW) 03:58:23 436.500 FM
AO-7 20 Apr 03:54:35 04:00:06 19° 92° (E) 04:05:34 29.400 - 29.500 MHz
JAS-1B 20 Apr 03:54:59 03:59:47 28° 96° (E) 04:04:47 435.800 - 435.900 CW/SSB
Gurwin Techsat 1B 20 Apr 04:25:02 04:30:10 52° 288° (WNW) 04:35:18 435.225 FM
AO-27 20 Apr 04:30:59 04:33:58 16° 299° (WNW) 04:36:56 436.795 MHz FM
RS-15 20 Apr 04:38:39 04:42:52 13° 96° (E) 04:47:01 29.354 - 29.394 USB, Beacon 29.352 USB
ITAMSAT 1 20 Apr 04:42:12 04:44:23 13° 300° (WNW) 04:46:35 435.822 SSB
AO-Echo 20 Apr 04:43:09 04:45:10 13° 299° (WNW) 04:47:11 ?
Uosat F 20 Apr 04:59:36 05:04:38 89° 104° (ESE) 05:09:38 435.120 FM
TMSAT-1 20 Apr 05:13:26 05:17:48 27° 294° (WNW) 05:22:10 436.925 FM
KITSAT 1 20 Apr 05:15:50 05:21:48 22° 323° (NW) 05:27:47 435.175 FM
AO-7 20 Apr 05:45:23 05:53:44 85° 289° (WNW) 06:02:05 29.400 - 29.500 MHz
JAS-1B 20 Apr 05:45:28 05:50:34 36° 292° (WNW) 05:55:51 435.800 - 435.900 CW/SSB
Hamsat 20 Apr 05:46:48 05:47:37 10° 90° (E) 05:48:26 145.90 MHz
STRAND 1 20 Apr 05:58:31 06:03:09 36° 69° (ENE) 06:07:48 ?
JAS-2 20 Apr 06:35:51 06:38:49 14° 92° (E) 06:41:54 435.800 - 435.900 CW/SSB, 435.910 FM
Uosat F 20 Apr 06:41:19 06:42:39 11° 301° (WNW) 06:43:59 435.120 FM
RS-15 20 Apr 06:41:51 06:53:04 68° 115° (ESE) 07:03:55 29.354 - 29.394 USB, Beacon 29.352 USB
MaSat-1 20 Apr 07:15:00 07:18:01 63° 246° (WSW) 07:21:36 437.345 MHz
Hamsat 20 Apr 07:19:41 07:24:00 65° 285° (WNW) 07:28:19 145.90 MHz
STRAND 1 20 Apr 07:38:10 07:42:23 26° 265° (W) 07:46:37 ?
AO-7 20 Apr 07:39:56 07:45:21 20° 309° (NW) 07:50:47 29.400 - 29.500 MHz
Sapphire 20 Apr 08:11:16 08:14:20 15° 42° (NE) 08:17:23 437.095 MHz 1200 baud AX-25 AFSK
SO-67 20 Apr 08:14:59 08:18:29 70° 283° (WNW) 08:21:57 435.3500 MHz FM
JAS-2 20 Apr 08:18:53 08:24:16 70° 286° (WNW) 08:30:14 435.800 - 435.900 CW/SSB, 435.910 FM
PANSAT 20 Apr 08:52:07 08:53:56 13° 171° (S) 08:55:45 not established
PCSat 20 Apr 08:55:00 08:59:50 32° 52° (NE) 09:04:39 145.825 MHz
RS-15 20 Apr 08:55:57 09:06:09 39° 319° (NW) 09:16:12 29.354 - 29.394 USB, Beacon 29.352 USB
KITSAT 1 20 Apr 09:17:06 09:21:09 14° 25° (NNE) 09:25:10 435.175 FM
HO-68 20 Apr 09:21:52 09:28:28 38° 98° (E) 09:35:02 435.675 MHz FM
Sapphire 20 Apr 09:53:07 09:58:34 86° 62° (ENE) 10:03:59 437.095 MHz 1200 baud AX-25 AFSK
Saudisat 1A 20 Apr 10:06:37 10:10:12 24° 112° (ESE) 10:13:49 436.775 MHz
FUNcube-1 20 Apr 10:27:10 10:30:13 19° 94° (E) 10:33:17 145.950 - 145.970 MHz USB
PANSAT 20 Apr 10:31:13 10:33:27 15° 184° (S) 10:35:42 not established
Oscar 11 20 Apr 10:33:39 10:38:01 74° 102° (ESE) 10:42:22 145.825 FM, Beacon 2401.500 USB
PCSat 20 Apr 10:38:20 10:43:16 36° 250° (WSW) 10:48:10 145.825 MHz
HO-68 20 Apr 11:09:32 11:16:08 41° 295° (WNW) 11:22:43 435.675 MHz FM
KITSAT 1 20 Apr 11:11:12 11:18:57 46° 51° (NE) 11:26:37 435.175 FM
RS-15 20 Apr 11:15:54 11:22:56 18° 352° (N) 11:29:56 29.354 - 29.394 USB, Beacon 29.352 USB
Sapphire 20 Apr 11:39:27 11:41:11 12° 258° (WSW) 11:42:55 437.095 MHz 1200 baud AX-25 AFSK
Saudisat 1A 20 Apr 11:45:31 11:49:38 35° 309° (NW) 11:53:46 436.775 MHz
FUNcube-1 20 Apr 12:02:49 12:06:43 35° 288° (WNW) 12:10:41 145.950 - 145.970 MHz USB
Oscar 11 20 Apr 12:12:43 12:13:35 11° 298° (WNW) 12:14:28 145.825 FM, Beacon 2401.500 USB
AO-27 20 Apr 12:31:54 12:33:44 12° 59° (ENE) 12:35:35 436.795 MHz FM
AO-Echo 20 Apr 12:40:07 12:41:10 11° 60° (ENE) 12:42:13 ?
ITAMSAT 1 20 Apr 12:41:20 12:44:04 15° 61° (ENE) 12:46:47 435.822 SSB
Oscar 19 20 Apr 12:42:05 12:46:20 27° 66° (ENE) 12:50:37 437.125 CW, 437.150 USB
Oscar 16 20 Apr 12:50:08 12:54:43 34° 68° (ENE) 12:59:21 437.025 USB, Beacon 2401.1428
KITSAT 1 20 Apr 13:06:49 13:14:15 42° 251° (WSW) 13:21:38 435.175 FM
Uribyol 2 20 Apr 13:27:01 13:31:48 40° 70° (ENE) 13:36:35 436.500 FM
RS-15 20 Apr 13:32:00 13:40:45 26° 29° (NNE) 13:49:34 29.354 - 29.394 USB, Beacon 29.352 USB
ISS 20 Apr 13:59:18 14:01:37 18° 131° (SE) 14:03:56 145.800 FM
Gurwin Techsat 1B 20 Apr 14:06:27 14:10:55 28° 67° (ENE) 14:15:24 435.225 FM
AO-27 20 Apr 14:07:17 14:12:29 88° 256° (WSW) 14:17:42 436.795 MHz FM
AO-Echo 20 Apr 14:13:54 14:19:09 84° 76° (ENE) 14:24:18 ?
ITAMSAT 1 20 Apr 14:17:46 14:22:56 72° 257° (WSW) 14:28:07 435.822 SSB
Oscar 19 20 Apr 14:20:49 14:25:30 36° 263° (W) 14:30:15 437.125 CW, 437.150 USB
Oscar 16 20 Apr 14:29:44 14:34:05 28° 265° (W) 14:38:28 437.025 USB, Beacon 2401.1428
Uosat F 20 Apr 14:36:28 14:38:58 14° 61° (ENE) 14:41:28 435.120 FM
SO-50 20 Apr 14:36:53 14:40:38 27° 113° (ESE) 14:44:25 436.795 FM
JAS-1B 20 Apr 14:38:59 14:45:29 30° 66° (ENE) 14:51:08 435.800 - 435.900 CW/SSB
AO-7 20 Apr 14:52:54 14:59:29 28° 56° (NE) 15:06:04 29.400 - 29.500 MHz
TMSAT-1 20 Apr 14:53:09 14:58:17 54° 72° (ENE) 15:03:26 436.925 FM
Uribyol 2 20 Apr 15:07:18 15:11:23 24° 265° (W) 15:15:29 436.500 FM
